TimeCST,TemperatureF,Dew PointF,Humidity,Sea Level PressureIn,VisibilityMPH,Wind Direction,Wind SpeedMPH,Gust SpeedMPH,PrecipitationIn,Events,Conditions,WindDirDegrees,DateUTC
12:33 AM,21.2,15.8,80,30.06,10.0,NNW,6.9,-,N/A,,Partly Cloudy,340,2013-01-13 06:33:00
12:55 AM,21.2,16.0,80,30.07,10.0,NNW,8.1,-,0.00,,Partly Cloudy,330,2013-01-13 06:55:00
1:55 AM,21.2,14.9,77,30.10,10.0,NNW,12.7,-,N/A,,Clear,340,2013-01-13 07:55:00
2:39 AM,21.2,14.0,74,30.13,10.0,NNW,12.7,-,N/A,,Mostly Cloudy,340,2013-01-13 08:39:00
2:55 AM,20.5,12.9,73,30.12,10.0,NNW,10.4,-,N/A,,Mostly Cloudy,340,2013-01-13 08:55:00
3:05 AM,19.4,12.2,74,30.10,10.0,North,12.7,-,N/A,,Overcast,350,2013-01-13 09:05:00
3:55 AM,19.0,12.2,75,30.12,10.0,NNW,10.4,-,N/A,,Mostly Cloudy,340,2013-01-13 09:55:00
4:55 AM,19.0,12.2,75,30.14,10.0,North,9.2,-,N/A,,Partly Cloudy,350,2013-01-13 10:55:00
5:55 AM,18.3,11.3,74,30.17,10.0,NW,12.7,-,N/A,,Scattered Clouds,320,2013-01-13 11:55:00
6:55 AM,16.2,7.5,69,30.21,10.0,NNW,10.4,-,N/A,,Scattered Clouds,330,2013-01-13 12:55:00
7:55 AM,14.5,7.3,73,30.20,10.0,NNW,10.4,-,N/A,,Scattered Clouds,330,2013-01-13 13:55:00
8:55 AM,15.1,7.0,70,30.22,10.0,NW,10.4,-,N/A,,Clear,320,2013-01-13 14:55:00
9:55 AM,16.9,7.7,67,30.26,10.0,NNW,13.8,-,N/A,,Clear,340,2013-01-13 15:55:00
10:55 AM,18.1,8.8,67,30.28,10.0,NW,11.5,-,N/A,,Clear,320,2013-01-13 16:55:00
11:55 AM,19.4,10.2,68,30.25,10.0,WNW,10.4,-,N/A,,Clear,290,2013-01-13 17:55:00
12:55 PM,20.8,10.8,65,30.24,10.0,WNW,12.7,-,N/A,,Clear,300,2013-01-13 18:55:00
1:55 PM,22.6,11.5,62,30.25,10.0,WNW,12.7,-,N/A,,Clear,290,2013-01-13 19:55:00
2:55 PM,23.2,10.6,59,30.26,10.0,NW,9.2,-,N/A,,Clear,310,2013-01-13 20:55:00
3:55 PM,24.1,10.8,57,30.28,10.0,NW,9.2,-,N/A,,Clear,320,2013-01-13 21:55:00
4:55 PM,23.2,10.8,59,30.30,10.0,WNW,9.2,-,N/A,,Clear,290,2013-01-13 22:55:00
5:55 PM,20.7,10.8,66,30.32,10.0,NW,4.6,-,N/A,,Clear,310,2013-01-13 23:55:00
6:55 PM,19.9,10.6,67,30.33,10.0,NNW,4.6,-,N/A,,Clear,330,2013-01-14 00:55:00
7:55 PM,18.9,9.9,68,30.33,10.0,Calm,Calm,-,N/A,,Clear,0,2013-01-14 01:55:00
8:55 PM,14.5,9.3,80,30.36,10.0,West,3.5,-,N/A,,Clear,260,2013-01-14 02:55:00
9:55 PM,15.4,8.6,74,30.35,10.0,West,3.5,-,N/A,,Clear,280,2013-01-14 03:55:00
10:55 PM,14.2,8.4,78,30.38,10.0,Calm,Calm,-,N/A,,Clear,0,2013-01-14 04:55:00
11:55 PM,10.9,6.3,81,30.40,10.0,South,3.5,-,N/A,,Clear,190,2013-01-14 05:55:00